#timestamp,LO_Frequency,Hit,StdDev 
1509343215.7,286047000.9,N
1509343235.5,286047000.7,N
1509343255.3,286046998.5,N
1509343275.2,286047000.7,N
1509343295.0,286047000.5,N
1509343295.9,286047000.5,N
1509343315.8,286047000.0,N
1509343335.6,286046997.2,N
1509343355.4,286046997.6,N
1509343375.3,286046998.0,N
1509343395.1,286046998.0,N
1509343396.0,286046998.0,N
1509343415.8,286046997.2,N
1509343435.7,286047001.0,N
1509343455.5,286046999.9,N
1509343475.3,286046999.3,N
1509343495.2,286047000.5,N
1509343515.9,286047000.9,N
1509343535.7,286046995.3,N
1509343555.6,286046997.1,N
1509343575.4,286046998.5,N
1509343595.2,286047002.8,N
1509343615.1,286047001.2,N
1509343616.0,286047001.2,N
1509343635.8,286046998.8,N
1509343655.6,286046996.5,N
1509343675.5,286046996.0,N
1509343695.3,286046996.7,N
1509343715.1,286046997.5,N
1509343735.9,286046990.5,Y
1509343755.7,286046989.4,P
1509343775.5,286046990.1,N
1509343795.4,286046988.7,N
1509343815.2,286046993.9,N
1509343835.0,286046998.0,N
1509343835.9,286046998.0,N
1509343855.8,286047000.0,N
1509343875.6,286047002.0,N
1509343895.4,286047005.6,N
1509343915.3,286047003.7,N
1509343935.1,286047003.3,N
1509343955.9,286047003.0,N
1509343975.7,286047009.0,N
1509343995.5,286047008.5,N
1509344015.4,286047005.1,N
1509344035.2,286047006.7,N
1509344055.0,286047012.4,N
1509344055.9,286047012.4,N
1509344075.8,286047012.2,N
1509344095.6,286047011.8,N
1509344115.4,286047010.5,N
1509344135.3,286047012.4,N
1509344155.1,286047013.0,N
1509344156.0,286047013.0,N
1509344175.8,286047014.6,N
1509344195.7,286047015.1,N
1509344215.5,286047015.1,N
1509344235.3,286047014.6,N
1509344255.2,286047015.1,N
1509344275.9,286047016.3,N
1509344295.7,286047016.9,N
1509344315.6,286047016.3,N
1509344335.4,286047014.3,N
1509344355.2,286047014.9,N
1509344375.1,286047017.1,N
1509344376.0,286047017.1,Y
1509344395.8,286047005.2,P
1509344415.6,286047004.7,N
1509344435.5,286047003.5,N
1509344455.3,286047002.5,N
1509344475.1,286046997.1,N
1509344495.9,286046995.5,N
1509344515.7,286046991.9,N
1509344535.5,286046993.2,N
1509344555.4,286046987.7,N
1509344575.2,286046986.9,N
1509344595.0,286046988.2,N
1509344596.0,286046988.2,N
1509344615.8,286046985.6,N
1509344635.6,286046984.9,N
1509344655.5,286046986.2,N
1509344675.3,286046982.7,N
1509344695.1,286046980.9,N
1509344715.9,286046979.2,N
1509344735.7,286046976.4,N
1509344755.5,286046977.2,N
1509344775.4,286046975.1,N
1509344795.2,286046976.3,N
1509344815.0,286046977.7,N
1509344815.9,286046977.7,N
1509344835.8,286046976.1,N
1509344855.6,286046973.0,N
1509344875.4,286046972.8,N
1509344895.3,286046970.9,N
1509344915.1,286046971.0,N
1509344935.8,286046973.9,N
1509344955.7,286046971.4,N
1509344975.5,286046970.9,N
1509344995.3,286046971.2,Y
1509345015.2,286046989.6,P
1509345035.0,286046989.2,P
1509345035.9,286046989.2,P
1509345055.8,286046990.1,Y
1509345075.6,286047003.1,P
1509345095.4,286047005.7,N
1509345115.3,286047008.4,N
1509345135.1,286047008.2,N
1509345155.8,286047010.7,N
1509345175.7,286047011.6,N
1509345195.5,286047014.7,N
1509345215.3,286047018.4,N
1509345235.2,286047015.9,N
1509345255.9,286047015.6,N
1509345275.7,286047012.6,N
1509345295.6,286047013.2,N
1509345315.4,286047011.4,N
1509345335.2,286047010.0,N
1509345355.1,286047009.6,N
1509345356.0,286047009.6,N
1509345375.8,286047009.1,N
1509345395.6,286047007.6,N
1509345415.5,286047005.9,N
1509345435.3,286047006.0,N
1509345455.1,286047000.0,N
1509345475.9,286046999.3,N
1509345495.7,286046997.9,N
1509345515.5,286046999.0,N
1509345535.4,286047002.2,N
1509345555.2,286047002.9,N
1509345575.0,286047009.2,N
1509345576.0,286047009.2,N
1509345595.8,286047013.9,N
1509345615.6,286047015.4,N
1509345635.5,286047015.6,N
1509345655.3,286047017.2,Y
1509345675.1,286047009.0,P
1509345695.9,286047010.3,P
1509345715.7,286047014.0,P
1509345735.5,286047015.3,Y
1509345755.4,286047005.9,P
1509345775.2,286047005.3,N
1509345795.0,286047006.8,N
1509345796.0,286047006.8,Y
1509345815.8,286047003.6,P
1509345835.6,286047007.1,P
1509345855.5,286047005.7,P
1509345875.3,286047003.5,N
1509345895.1,286047004.1,N
1509345915.9,286047005.5,Y
1509345935.7,286047003.4,P
1509345955.5,286047005.1,P
1509345975.4,286047002.0,N
1509345995.2,286047000.1,N
1509346015.0,286047000.4,N
1509346015.9,286047000.4,N
1509346035.8,286046999.8,N
1509346055.6,286047002.0,N
1509346075.4,286047000.3,N
1509346095.3,286046998.7,N
1509346115.1,286047001.5,N
1509346135.9,286047004.3,N
1509346155.7,286047004.9,N
1509346175.5,286047013.3,Y
1509346195.4,286047010.1,P
1509346215.2,286047015.6,P
1509346235.0,286047011.6,N
1509346235.9,286047011.6,N
1509346255.8,286047013.3,N
1509346275.6,286047013.5,Y
1509346295.4,286046999.7,P
1509346315.3,286047002.5,N
1509346335.1,286047004.2,N
1509346355.8,286047000.2,N
1509346375.7,286046998.4,N
1509346395.5,286047002.6,N
1509346415.4,286047002.2,N
1509346435.2,286047006.0,N
1509346455.0,286047003.5,N
1509346455.9,286047003.5,N
1509346475.8,286047003.8,N
1509346495.6,286047001.4,N
1509346515.4,286047004.0,N
1509346535.3,286047003.0,N
1509346555.1,286047000.0,N
1509346556.0,286047000.0,N
1509346575.8,286046995.7,N
1509346595.7,286046993.2,N
1509346615.5,286046989.1,N
1509346635.3,286046989.9,N
1509346655.2,286046983.8,Y
1509346675.0,286046983.8,P
1509346675.9,286046983.8,N
1509346695.7,286046988.2,N
1509346715.6,286046987.6,N
1509346735.4,286046987.3,N
1509346755.2,286046987.3,N
1509346775.1,286046994.4,N
1509346776.0,286046994.4,N
1509346795.8,286046996.6,N
